Find Starlink 3889

NORAD ID: 52331 Int'l Des: 2022-045 Owner: SPXS Country: US Constellation: starlink operational
LEOCIRCULAR

現在のビュー

3D地球を読み込み中...

About Starlink 3889

Starlink 3889 (NORAD 52331) is a starlink constellation satellite (v1.5) launched Apr 29, 2022 by SPXS of US. It operates in LEO, CIRCULAR orbit with a mass of 297.00 kg.

次回通過

Passes for default location (London). Set your location on the main map for personalized predictions.

高度履歴

Loading altitude history...

軌道要素

1 52331U 22045A 26262.83335647 .00050671 00000-0 14549-2 0 9998
2 52331 53.1599 54.8729 0001135 71.4074 100.5726 15.35375086 5836
Epoch: Sep 19, 2026 • Age: 5 hours

現在のステータス

高度 475.9 km
遠地点 / 近地点 N/A
速度 7.63 km/s
衛星直下点 -45.32°S, 91.04°W
打ち上げ日 Apr 29, 2022
運用期間 4.3 years
タイプ internet

技術仕様

分類 Payload
質量 297.00 kg
乾燥質量 275.00 kg
長さ 0.20 m
スパン 9.00 m
形状 ? Box + pan
製造者 SPXS
バスタイプ Starlink
フェーズステータス In Orbit
所有者/国 SPXS/US

Most Searched